Bozeman, MT

8:11 PM MDT on April 26, 2018 (GMT -0600)
Gallatin

Weather History for KBZN - January, 2013

Change the Weather History Date:

Wednesday, January 9, 2013

  Actual Average Record
Temperature  
Mean Temperature 36 °F 23 °F  
Max Temperature 46 °F 35 °F 53 °F (2007)
Min Temperature 26 °F 10 °F -42 °F (1962)
Degree Days  
Heating Degree Days 29 42  
Month to date heating degree days 423 386  
Since 1 July heating degree days 3650 3621  
Cooling Degree Days 0 0  
Month to date cooling degree days 0 0  
Year to date cooling degree days 0 0  
Moisture  
Dew Point 22 °F    
Average Humidity 57    
Maximum Humidity 69    
Minimum Humidity 45    
Precipitation  
Precipitation 0.00 in 0.02 in 0.21 in (1978)
Month to date precipitation 0.00 0.14  
Year to date precipitation 0.00 0.14  
Snow  
Snow 0.00 in 0.10 in 3.00 in (1997)
Month to date snowfall 0.0 1.2  
Since 1 July snowfall 14.6 14.6  
Snow Depth -    
Sea Level Pressure  
Sea Level Pressure 29.92 in    
Wind  
Wind Speed 5 mph (East)    
Max Wind Speed 16 mph    
Max Gust Speed 20 mph    
Visibility 10 miles    
Events      
T = Trace of Precipitation, MM = Missing Value Source: NWS Daily Summary

Daily Weather History Graph

Daily Weather History Graph

Search for Another Location

Airport or City:

Astronomy

Jan. 09, 2013 Rise Set
Actual Time 8:04 AM MST 4:59 PM MST
Civil Twilight 7:30 AM MST 5:33 PM MST
Nautical Twilight 6:53 AM MST 6:10 PM MST
Astronomical Twilight 6:17 AM MST 6:46 PM MST
Moon 5:47 AM MST (1/9) 3:04 PM MST (1/9)
Length of Visible Light 10h 02m
Length of Day
8h 55m
Waning Crescent, 6% of the Moon is Illuminated
Jan 9
Waning Crescent
Jan 11
New
Jan 18
First Quarter
Jan 26
Full
Feb 3
Last Quarter

Hourly Weather History & Observations

Time (MST) Temp. Windchill Dew Point Humidity Pressure Visibility Wind Dir Wind Speed Gust Speed Precip Events Conditions
12:56 AM 42.1 °F 36.6 °F 24.1 °F 49% 30.02 in 10.0 mi SW 9.2 mph - N/A   Clear
1:56 AM 37.9 °F 35.5 °F 23.0 °F 55% 30.05 in 10.0 mi WSW 3.5 mph - N/A   Clear
2:56 AM 37.9 °F 34.4 °F 21.9 °F 53% 30.07 in 10.0 mi NNE 4.6 mph - N/A   Clear
3:56 AM 28.0 °F 21.7 °F 19.9 °F 72% 30.11 in 10.0 mi NE 5.8 mph - N/A   Clear
4:56 AM 30.0 °F 24.1 °F 18.0 °F 61% 30.09 in 10.0 mi East 5.8 mph - N/A   Clear
6:56 AM 39.9 °F - 21.0 °F 47% 30.04 in 10.0 mi Calm Calm - N/A   Clear
7:56 AM 33.1 °F 28.7 °F 19.0 °F 56% 30.07 in 10.0 mi NNE 4.6 mph - N/A   Clear
8:56 AM 28.9 °F 22.8 °F 18.0 °F 64% 30.08 in 10.0 mi ESE 5.8 mph - N/A   Clear
9:56 AM 33.1 °F 26.9 °F 19.9 °F 59% 30.02 in 10.0 mi ENE 6.9 mph - N/A   Clear
10:56 AM 34.0 °F 31.0 °F 21.9 °F 61% 29.99 in 10.0 mi Variable 3.5 mph - N/A   Clear
11:56 AM 43.0 °F 39.5 °F 23.0 °F 45% 29.91 in 10.0 mi SE 5.8 mph - N/A   Clear
12:56 PM 41.0 °F 38.0 °F 25.0 °F 53% 29.87 in 10.0 mi NNW 4.6 mph - N/A   Clear
1:56 PM 37.9 °F 35.5 °F 26.1 °F 62% 29.87 in 10.0 mi SSW 3.5 mph - N/A   Clear
2:56 PM 44.1 °F 40.8 °F 24.1 °F 45% 29.83 in 10.0 mi SSW 5.8 mph - N/A   Clear
3:56 PM 39.0 °F 36.8 °F 24.1 °F 55% 29.88 in 10.0 mi ENE 3.5 mph - N/A   Clear
4:56 PM 36.0 °F 29.6 °F 23.0 °F 59% 29.86 in 10.0 mi ESE 8.1 mph - N/A   Clear
5:56 PM 37.0 °F 33.3 °F 23.0 °F 57% 29.83 in 10.0 mi SE 4.6 mph - N/A   Clear
6:56 PM 39.2 °F 31.2 °F 24.8 °F 56% 29.73 in 10.0 mi SSE 13.8 mph - N/A   Clear
7:56 PM 35.1 °F 31.0 °F 23.0 °F 61% 29.78 in 10.0 mi NW 4.6 mph - N/A   Clear
8:56 PM 34.0 °F 29.8 °F 23.0 °F 64% 29.79 in 10.0 mi East 4.6 mph - N/A   Clear
9:56 PM 30.9 °F 26.2 °F 21.9 °F 69% 29.76 in 10.0 mi North 4.6 mph - N/A   Clear
11:56 PM 39.0 °F 35.7 °F 21.0 °F 49% 29.65 in 10.0 mi South 4.6 mph - N/A   Clear